User: anonymous   Login
Location: Knowlton
(51.2333°N, 1.2667°E)
Time: 02:31:46
(UTC+00:00)
Language:

XW-2F - Orbit

View from above orbital plane
View from above orbital plane
View from above satellite
View from above satellite

Ground track
Ground track

The orbit data is extracted from the following two-line orbital elements,

1 40910U 15049M   21339.48384183  .00003859  00000-0  18248-3 0  9991
2 40910  97.4742 342.9809 0012501 298.5918 191.6325 15.19921024343691
Epoch (UTC): 05 December 2021 11:36:43
Eccentricity: 0.0012501
inclination: 97.4742°
perigee height: 497 km
apogee height: 514 km
right ascension of ascending node: 342.9809°
argument of perigee: 298.5918°
revolutions per day: 15.19921024
mean anomaly at epoch: 191.6325°
orbit number at epoch: 34369

The dashed part of the orbit path shows where the satellite is in the earth's shadow,  

DLR